Year,Month,Day,Hour,Minute,Value (Times are PST for temperature in C)
2007,09,19,00,00,8.40
2007,09,19,00,01,8.40
2007,09,19,00,02,8.40
2007,09,19,00,03,8.30
2007,09,19,00,04,8.30
2007,09,19,00,05,8.30
2007,09,19,00,06,8.30
2007,09,19,00,07,8.30
2007,09,19,00,08,8.30
2007,09,19,00,09,8.30
2007,09,19,00,10,8.40
2007,09,19,00,11,8.40
2007,09,19,00,12,8.50
2007,09,19,00,13,8.50
2007,09,19,00,14,8.50
2007,09,19,00,15,8.50
2007,09,19,00,16,8.50
2007,09,19,00,17,8.50
2007,09,19,00,18,8.50
2007,09,19,00,19,8.50
2007,09,19,00,20,8.50
2007,09,19,00,21,8.40
2007,09,19,00,22,8.40
2007,09,19,00,23,8.40
2007,09,19,00,24,8.40
2007,09,19,00,25,8.40
2007,09,19,00,26,8.40
2007,09,19,00,27,8.40
2007,09,19,00,28,8.40
2007,09,19,00,29,8.40
2007,09,19,00,30,8.40
2007,09,19,00,31,8.40
2007,09,19,00,32,8.40
2007,09,19,00,33,8.40
2007,09,19,00,34,8.40
2007,09,19,00,35,8.50
2007,09,19,00,36,8.50
2007,09,19,00,37,8.50
2007,09,19,00,38,8.50
2007,09,19,00,39,8.50
2007,09,19,00,40,8.50
2007,09,19,00,41,8.50
2007,09,19,00,42,8.50
2007,09,19,00,43,8.50
2007,09,19,00,44,8.50
2007,09,19,00,45,8.50
2007,09,19,00,46,8.50
2007,09,19,00,47,8.40
2007,09,19,00,48,8.40
2007,09,19,00,49,8.40
2007,09,19,00,50,8.40
2007,09,19,00,51,8.40
2007,09,19,00,52,8.40
2007,09,19,00,53,8.50
2007,09,19,00,54,8.50
2007,09,19,00,55,8.50
2007,09,19,00,56,8.50
2007,09,19,00,57,8.50
2007,09,19,00,58,8.40
2007,09,19,00,59,8.40
2007,09,19,01,00,8.40
2007,09,19,01,01,8.40
2007,09,19,01,02,8.40
2007,09,19,01,03,8.40
2007,09,19,01,04,8.40
2007,09,19,01,05,8.40
2007,09,19,01,06,8.40
2007,09,19,01,07,8.40
2007,09,19,01,08,8.40
2007,09,19,01,09,8.30
2007,09,19,01,10,8.30
2007,09,19,01,11,8.30
2007,09,19,01,12,8.30
2007,09,19,01,13,8.30
2007,09,19,01,14,8.30
2007,09,19,01,15,8.30
2007,09,19,01,16,8.20
2007,09,19,01,17,8.20
2007,09,19,01,18,8.20
2007,09,19,01,19,8.20
2007,09,19,01,20,8.20
2007,09,19,01,21,8.20
2007,09,19,01,22,8.20
2007,09,19,01,23,8.20
2007,09,19,01,24,8.20
2007,09,19,01,25,8.20
2007,09,19,01,26,8.30
2007,09,19,01,27,8.20
2007,09,19,01,28,8.20
2007,09,19,01,29,8.20
2007,09,19,01,30,8.20
2007,09,19,01,31,8.20
2007,09,19,01,32,8.20
2007,09,19,01,33,8.20
2007,09,19,01,34,8.20
2007,09,19,01,35,8.30
2007,09,19,01,36,8.30
2007,09,19,01,37,8.30
2007,09,19,01,38,8.30
2007,09,19,01,39,8.30
2007,09,19,01,40,8.40
2007,09,19,01,41,8.30
2007,09,19,01,42,8.30
2007,09,19,01,43,8.30
2007,09,19,01,44,8.30
2007,09,19,01,45,8.30
2007,09,19,01,46,8.30
2007,09,19,01,47,8.30
2007,09,19,01,48,8.30
2007,09,19,01,49,8.30
2007,09,19,01,50,8.30
2007,09,19,01,51,8.30
2007,09,19,01,52,8.30
2007,09,19,01,53,8.30
2007,09,19,01,54,8.30
2007,09,19,01,55,8.30
2007,09,19,01,56,8.30
2007,09,19,01,57,8.30
2007,09,19,01,58,8.30
2007,09,19,01,59,8.30
2007,09,19,02,00,8.30
2007,09,19,02,01,8.30
2007,09,19,02,02,8.30
2007,09,19,02,03,8.30
2007,09,19,02,04,8.30
2007,09,19,02,05,8.30
2007,09,19,02,06,8.30
2007,09,19,02,07,8.30
2007,09,19,02,08,8.40
2007,09,19,02,09,8.40
2007,09,19,02,10,8.30
2007,09,19,02,11,8.30
2007,09,19,02,12,8.30
2007,09,19,02,13,8.30
2007,09,19,02,14,8.30
2007,09,19,02,15,8.30
2007,09,19,02,16,8.30
2007,09,19,02,17,8.30
2007,09,19,02,18,8.20
2007,09,19,02,19,8.20
2007,09,19,02,20,8.20
2007,09,19,02,21,8.10
2007,09,19,02,22,8.10
2007,09,19,02,23,8.10
2007,09,19,02,24,8.00
2007,09,19,02,25,7.90
2007,09,19,02,26,7.90
2007,09,19,02,27,7.90
2007,09,19,02,28,7.90
2007,09,19,02,29,7.90
2007,09,19,02,30,7.90
2007,09,19,02,31,7.80
2007,09,19,02,32,7.80
2007,09,19,02,33,7.80
2007,09,19,02,34,7.70
2007,09,19,02,35,7.80
2007,09,19,02,36,7.80
2007,09,19,02,37,7.80
2007,09,19,02,38,7.80
2007,09,19,02,39,7.80
2007,09,19,02,40,7.70
2007,09,19,02,41,7.70
2007,09,19,02,42,7.70
2007,09,19,02,43,7.60
2007,09,19,02,44,7.60
2007,09,19,02,45,7.60
2007,09,19,02,46,7.60
2007,09,19,02,47,7.60
2007,09,19,02,48,7.60
2007,09,19,02,49,7.50
2007,09,19,02,50,7.50
2007,09,19,02,51,7.40
2007,09,19,02,52,7.40
2007,09,19,02,53,7.40
2007,09,19,02,54,7.30
2007,09,19,02,55,7.30
2007,09,19,02,56,7.30
2007,09,19,02,57,7.30
2007,09,19,02,58,7.30
2007,09,19,02,59,7.40
2007,09,19,03,00,7.40
2007,09,19,03,01,7.50
2007,09,19,03,02,7.50
2007,09,19,03,03,7.50
2007,09,19,03,04,7.50
2007,09,19,03,05,7.40
2007,09,19,03,06,7.40
2007,09,19,03,07,7.40
2007,09,19,03,08,7.40
2007,09,19,03,09,7.50
2007,09,19,03,10,7.50
2007,09,19,03,11,7.50
2007,09,19,03,12,7.60
2007,09,19,03,13,7.70
2007,09,19,03,14,7.70
2007,09,19,03,15,7.70
2007,09,19,03,16,7.70
2007,09,19,03,17,7.70
2007,09,19,03,18,7.70
2007,09,19,03,19,7.70
2007,09,19,03,20,7.80
2007,09,19,03,21,7.90
2007,09,19,03,22,7.90
2007,09,19,03,23,8.00
2007,09,19,03,24,8.00
2007,09,19,03,25,8.00
2007,09,19,03,26,7.90
2007,09,19,03,27,7.90
2007,09,19,03,28,7.90
2007,09,19,03,29,7.90
2007,09,19,03,30,7.80
2007,09,19,03,31,7.80
2007,09,19,03,32,7.80
2007,09,19,03,33,7.80
2007,09,19,03,34,7.80
2007,09,19,03,35,7.80
2007,09,19,03,36,7.80
2007,09,19,03,37,7.80
2007,09,19,03,38,7.90
2007,09,19,03,39,7.90
2007,09,19,03,40,7.90
2007,09,19,03,41,7.90
2007,09,19,03,42,7.90
2007,09,19,03,43,7.80
2007,09,19,03,44,7.80
2007,09,19,03,45,7.70
2007,09,19,03,46,7.70
2007,09,19,03,47,7.70
2007,09,19,03,48,7.70
2007,09,19,03,49,7.70
2007,09,19,03,50,7.70
2007,09,19,03,51,7.80
2007,09,19,03,52,7.80
2007,09,19,03,53,7.70
2007,09,19,03,54,7.70
2007,09,19,03,55,7.80
2007,09,19,03,56,7.90
2007,09,19,03,57,8.00
2007,09,19,03,58,8.00
2007,09,19,03,59,8.10
2007,09,19,04,00,8.00
2007,09,19,04,01,8.00
2007,09,19,04,02,8.00
2007,09,19,04,03,8.00
2007,09,19,04,04,8.00
2007,09,19,04,05,8.00
2007,09,19,04,06,7.90
2007,09,19,04,07,7.90
2007,09,19,04,08,7.80
2007,09,19,04,09,7.80
2007,09,19,04,10,7.70
2007,09,19,04,11,7.70
2007,09,19,04,12,7.60
2007,09,19,04,13,7.50
2007,09,19,04,14,7.50
2007,09,19,04,15,7.40
2007,09,19,04,16,7.40
2007,09,19,04,17,7.30
2007,09,19,04,18,7.30
2007,09,19,04,19,7.20
2007,09,19,04,20,7.20
2007,09,19,04,21,7.20
2007,09,19,04,22,7.20
2007,09,19,04,23,7.10
2007,09,19,04,24,7.10
2007,09,19,04,25,7.10
2007,09,19,04,26,7.10
2007,09,19,04,27,7.00
2007,09,19,04,28,7.00
2007,09,19,04,29,7.00
2007,09,19,04,30,6.90
2007,09,19,04,31,6.90
2007,09,19,04,32,6.90
2007,09,19,04,33,6.80
2007,09,19,04,34,6.80
2007,09,19,04,35,6.80
2007,09,19,04,36,6.70
2007,09,19,04,37,6.70
2007,09,19,04,38,6.60
2007,09,19,04,39,6.60
2007,09,19,04,40,6.50
2007,09,19,04,41,6.40
2007,09,19,04,42,6.40
2007,09,19,04,43,6.30
2007,09,19,04,44,6.30
2007,09,19,04,45,6.20
2007,09,19,04,46,6.20
2007,09,19,04,47,6.10
2007,09,19,04,48,6.10
2007,09,19,04,49,6.00
2007,09,19,04,50,6.00
2007,09,19,04,51,5.90
2007,09,19,04,52,5.90
2007,09,19,04,53,5.90
2007,09,19,04,54,5.80
2007,09,19,04,55,5.80
2007,09,19,04,56,5.70
2007,09,19,04,57,5.70
2007,09,19,04,58,5.70
2007,09,19,04,59,5.60
2007,09,19,05,00,5.60
2007,09,19,05,01,5.60
2007,09,19,05,02,5.50
2007,09,19,05,03,5.50
2007,09,19,05,04,5.50
2007,09,19,05,05,5.40
2007,09,19,05,06,5.40
2007,09,19,05,07,5.40
2007,09,19,05,08,5.40
2007,09,19,05,09,5.30
2007,09,19,05,10,5.30
2007,09,19,05,11,5.30
2007,09,19,05,12,5.30
2007,09,19,05,13,5.30
2007,09,19,05,14,5.20
2007,09,19,05,15,5.20
2007,09,19,05,16,5.20
2007,09,19,05,17,5.20
2007,09,19,05,18,5.20
2007,09,19,05,19,5.20
2007,09,19,05,20,5.10
2007,09,19,05,21,5.10
2007,09,19,05,22,5.10
2007,09,19,05,23,5.10
2007,09,19,05,24,5.10
2007,09,19,05,25,5.10
2007,09,19,05,26,5.00
2007,09,19,05,27,5.00
2007,09,19,05,28,5.00
2007,09,19,05,29,5.00
2007,09,19,05,30,4.90
2007,09,19,05,31,4.90
2007,09,19,05,32,4.90
2007,09,19,05,33,4.90
2007,09,19,05,34,4.90
2007,09,19,05,35,4.80
2007,09,19,05,36,4.80
2007,09,19,05,37,4.80
2007,09,19,05,38,4.80
2007,09,19,05,39,4.80
2007,09,19,05,40,4.80
2007,09,19,05,41,4.80
2007,09,19,05,42,4.70
2007,09,19,05,43,4.70
2007,09,19,05,44,4.70
2007,09,19,05,45,4.70
2007,09,19,05,46,4.70
2007,09,19,05,47,4.70
2007,09,19,05,48,4.60
2007,09,19,05,49,4.60
2007,09,19,05,50,4.60
2007,09,19,05,51,4.60
2007,09,19,05,52,4.60
2007,09,19,05,53,4.60
2007,09,19,05,54,4.50
2007,09,19,05,55,4.50
2007,09,19,05,56,4.50
2007,09,19,05,57,4.40
2007,09,19,05,58,4.40
2007,09,19,05,59,4.40
2007,09,19,06,00,4.40
2007,09,19,06,01,4.40
2007,09,19,06,02,4.40
2007,09,19,06,03,4.40
2007,09,19,06,04,4.30
2007,09,19,06,05,4.30
2007,09,19,06,06,4.30
2007,09,19,06,07,4.30
2007,09,19,06,08,4.30
2007,09,19,06,09,4.30
2007,09,19,06,10,4.30
2007,09,19,06,11,4.20
2007,09,19,06,12,4.20
2007,09,19,06,13,4.20
2007,09,19,06,14,4.20
2007,09,19,06,15,4.20
2007,09,19,06,16,4.10
2007,09,19,06,17,4.10
2007,09,19,06,18,4.10
2007,09,19,06,19,4.10
2007,09,19,06,20,4.10
2007,09,19,06,21,4.10
2007,09,19,06,22,4.10
2007,09,19,06,23,4.10
2007,09,19,06,24,4.10
2007,09,19,06,25,4.10
2007,09,19,06,26,4.00
2007,09,19,06,27,4.00
2007,09,19,06,28,4.00
2007,09,19,06,29,4.00
2007,09,19,06,30,4.00
2007,09,19,06,31,4.00
2007,09,19,06,32,4.00
2007,09,19,06,33,3.90
2007,09,19,06,34,3.90
2007,09,19,06,35,3.90
2007,09,19,06,36,3.90
2007,09,19,06,37,3.90
2007,09,19,06,38,3.90
2007,09,19,06,39,3.90
2007,09,19,06,40,3.90
2007,09,19,06,41,3.80
2007,09,19,06,42,3.80
2007,09,19,06,43,3.80
2007,09,19,06,44,3.80
2007,09,19,06,45,3.80
2007,09,19,06,46,3.80
2007,09,19,06,47,3.80
2007,09,19,06,48,3.80
2007,09,19,06,49,3.80
2007,09,19,06,50,3.80
2007,09,19,06,51,3.80
2007,09,19,06,52,3.70
2007,09,19,06,53,3.70
2007,09,19,06,54,3.70
2007,09,19,06,55,3.70
2007,09,19,06,56,3.70
2007,09,19,06,57,3.70
2007,09,19,06,58,3.70
2007,09,19,06,59,3.70
2007,09,19,07,00,3.70
2007,09,19,07,01,3.70
2007,09,19,07,02,3.70
2007,09,19,07,03,3.70
2007,09,19,07,04,3.60
2007,09,19,07,05,3.60
2007,09,19,07,06,3.60
2007,09,19,07,07,3.60
2007,09,19,07,08,3.60
2007,09,19,07,09,3.60
2007,09,19,07,10,3.60
2007,09,19,07,11,3.60
2007,09,19,07,12,3.60
2007,09,19,07,13,3.60
2007,09,19,07,14,3.60
2007,09,19,07,15,3.60
2007,09,19,07,16,3.60
2007,09,19,07,17,3.60
2007,09,19,07,18,3.60
2007,09,19,07,19,3.60
2007,09,19,07,20,3.60
2007,09,19,07,21,3.60
2007,09,19,07,22,3.60
2007,09,19,07,23,3.60
2007,09,19,07,24,3.60
2007,09,19,07,25,3.60
2007,09,19,07,26,3.50
2007,09,19,07,27,3.50
2007,09,19,07,28,3.50
2007,09,19,07,29,3.50
2007,09,19,07,30,3.50
2007,09,19,07,31,3.50
2007,09,19,07,32,3.50
2007,09,19,07,33,3.50
2007,09,19,07,34,3.50
2007,09,19,07,35,3.50
2007,09,19,07,36,3.50
2007,09,19,07,37,3.50
2007,09,19,07,38,3.50
2007,09,19,07,39,3.50
2007,09,19,07,40,3.50
2007,09,19,07,41,3.50
2007,09,19,07,42,3.50
2007,09,19,07,43,3.50
2007,09,19,07,44,3.50
2007,09,19,07,45,3.50
2007,09,19,07,46,3.50
2007,09,19,07,47,3.50
2007,09,19,07,48,3.60
2007,09,19,07,49,3.60
2007,09,19,07,50,3.60
2007,09,19,07,51,3.60
2007,09,19,07,52,3.60
2007,09,19,07,53,3.60
2007,09,19,07,54,3.60
2007,09,19,07,55,3.60
2007,09,19,07,56,3.60
2007,09,19,07,57,3.60
2007,09,19,07,58,3.70
2007,09,19,07,59,3.70
2007,09,19,08,00,3.70
2007,09,19,08,01,3.70
2007,09,19,08,02,3.70
2007,09,19,08,03,3.70
2007,09,19,08,04,3.70
2007,09,19,08,05,3.70
2007,09,19,08,06,3.80
2007,09,19,08,07,3.80
2007,09,19,08,08,3.80
2007,09,19,08,09,3.80
2007,09,19,08,10,3.80
2007,09,19,08,11,3.80
2007,09,19,08,12,3.90
2007,09,19,08,13,3.90
2007,09,19,08,14,3.90
2007,09,19,08,15,3.90
2007,09,19,08,16,3.90
2007,09,19,08,17,3.90
2007,09,19,08,18,4.00
2007,09,19,08,19,4.00
2007,09,19,08,20,4.10
2007,09,19,08,21,4.10
2007,09,19,08,22,4.20
2007,09,19,08,23,4.30
2007,09,19,08,24,4.40
2007,09,19,08,25,4.50
2007,09,19,08,26,4.60
2007,09,19,08,27,4.70
2007,09,19,08,28,4.80
2007,09,19,08,29,4.90
2007,09,19,08,30,5.00
2007,09,19,08,31,5.10
2007,09,19,08,32,5.20
2007,09,19,08,33,5.40
2007,09,19,08,34,5.50
2007,09,19,08,35,5.50
2007,09,19,08,36,5.70
2007,09,19,08,37,5.80
2007,09,19,08,38,5.90
2007,09,19,08,39,6.00
2007,09,19,08,40,6.10
2007,09,19,08,41,6.20
2007,09,19,08,42,6.30
2007,09,19,08,43,6.40
2007,09,19,08,44,6.60
2007,09,19,08,45,6.70
2007,09,19,08,46,6.80
2007,09,19,08,47,7.00
2007,09,19,08,48,7.10
2007,09,19,08,49,7.20
2007,09,19,08,50,7.20
2007,09,19,08,51,7.20
2007,09,19,08,52,7.30
2007,09,19,08,53,7.40
2007,09,19,08,54,7.60
2007,09,19,08,55,7.70
2007,09,19,08,56,7.80
2007,09,19,08,57,8.00
2007,09,19,08,58,8.20
2007,09,19,08,59,8.30
2007,09,19,09,00,8.50
2007,09,19,09,01,8.60
2007,09,19,09,02,8.80
2007,09,19,09,03,8.90
2007,09,19,09,04,9.00
2007,09,19,09,05,9.10
2007,09,19,09,06,9.20
2007,09,19,09,07,9.30
2007,09,19,09,08,9.40
2007,09,19,09,09,9.50
2007,09,19,09,10,9.60
2007,09,19,09,11,9.70
2007,09,19,09,12,9.80
2007,09,19,09,13,9.90
2007,09,19,09,14,9.90
2007,09,19,09,15,10.00
2007,09,19,09,16,10.10
2007,09,19,09,17,10.30
2007,09,19,09,18,10.40
2007,09,19,09,19,10.50
2007,09,19,09,20,10.60
2007,09,19,09,21,10.70
2007,09,19,09,22,10.80
2007,09,19,09,23,10.80
2007,09,19,09,24,10.90
2007,09,19,09,25,10.90
2007,09,19,09,26,10.90
2007,09,19,09,27,10.90
2007,09,19,09,28,10.90
2007,09,19,09,29,11.00
2007,09,19,09,30,11.00
2007,09,19,09,31,11.10
2007,09,19,09,32,11.30
2007,09,19,09,33,11.30
2007,09,19,09,34,11.40
2007,09,19,09,35,11.50
2007,09,19,09,36,11.60
2007,09,19,09,37,11.60
2007,09,19,09,38,11.70
2007,09,19,09,39,11.80
2007,09,19,09,40,11.90
2007,09,19,09,41,11.90
2007,09,19,09,42,12.00
2007,09,19,09,43,12.10
2007,09,19,09,44,12.20
2007,09,19,09,45,12.20
2007,09,19,09,46,12.20
2007,09,19,09,47,12.30
2007,09,19,09,48,12.30
2007,09,19,09,49,12.40
2007,09,19,09,50,12.40
2007,09,19,09,51,12.40
2007,09,19,09,52,12.50
2007,09,19,09,53,12.60
2007,09,19,09,54,12.60
2007,09,19,09,55,12.60
2007,09,19,09,56,12.70
2007,09,19,09,57,12.70
2007,09,19,09,58,12.70
2007,09,19,09,59,12.70
2007,09,19,10,00,12.70
2007,09,19,10,01,12.70
2007,09,19,10,02,12.80
2007,09,19,10,03,12.80
2007,09,19,10,04,12.80
2007,09,19,10,05,12.80
2007,09,19,10,06,12.90
2007,09,19,10,07,12.90
2007,09,19,10,08,12.90
2007,09,19,10,09,13.00
2007,09,19,10,10,13.00
2007,09,19,10,11,13.10
2007,09,19,10,12,13.10
2007,09,19,10,13,13.10
2007,09,19,10,14,13.10
2007,09,19,10,15,13.20
2007,09,19,10,16,13.20
2007,09,19,10,17,13.20
2007,09,19,10,18,13.20
2007,09,19,10,19,13.20
2007,09,19,10,20,13.20
2007,09,19,10,21,13.30
2007,09,19,10,22,13.30
2007,09,19,10,23,13.30
2007,09,19,10,24,13.30
2007,09,19,10,25,13.30
2007,09,19,10,26,13.30
2007,09,19,10,27,13.30
2007,09,19,10,28,13.30
2007,09,19,10,29,13.30
2007,09,19,10,30,13.30
2007,09,19,10,31,13.30
2007,09,19,10,32,13.40
2007,09,19,10,33,13.40
2007,09,19,10,34,13.50
2007,09,19,10,35,13.50
2007,09,19,10,36,13.60
2007,09,19,10,37,13.60
2007,09,19,10,38,13.70
2007,09,19,10,39,13.70
2007,09,19,10,40,13.60
2007,09,19,10,41,13.60
2007,09,19,10,42,13.60
2007,09,19,10,43,13.60
2007,09,19,10,44,13.60
2007,09,19,10,45,13.60
2007,09,19,10,46,13.60
2007,09,19,10,47,13.60
2007,09,19,10,48,13.60
2007,09,19,10,49,13.60
2007,09,19,10,50,13.70
2007,09,19,10,51,13.80
2007,09,19,10,52,13.90
2007,09,19,10,53,13.90
2007,09,19,10,54,13.90
2007,09,19,10,55,14.00
2007,09,19,10,56,14.10
2007,09,19,10,57,14.10
2007,09,19,10,58,14.20
2007,09,19,10,59,14.30
2007,09,19,11,00,14.30
2007,09,19,11,01,14.40
2007,09,19,11,02,14.50
2007,09,19,11,03,14.50
2007,09,19,11,04,14.60
2007,09,19,11,05,14.70
2007,09,19,11,06,14.70
2007,09,19,11,07,14.70
2007,09,19,11,08,14.70
2007,09,19,11,09,14.70
2007,09,19,11,10,14.70
2007,09,19,11,11,14.70
2007,09,19,11,12,14.70
2007,09,19,11,13,14.70
2007,09,19,11,14,14.70
2007,09,19,11,15,14.70
2007,09,19,11,16,14.60
2007,09,19,11,17,14.60
2007,09,19,11,18,14.60
2007,09,19,11,19,14.60
2007,09,19,11,20,14.60
2007,09,19,11,21,14.60
2007,09,19,11,22,14.60
2007,09,19,11,23,14.60
2007,09,19,11,24,14.60
2007,09,19,11,25,14.60
2007,09,19,11,26,14.50
2007,09,19,11,27,14.50
2007,09,19,11,28,14.50
2007,09,19,11,29,14.50
2007,09,19,11,30,14.50
2007,09,19,11,31,14.50
2007,09,19,11,32,14.60
2007,09,19,11,33,14.60
2007,09,19,11,34,14.70
2007,09,19,11,35,14.70
2007,09,19,11,36,14.80
2007,09,19,11,37,14.90
2007,09,19,11,38,15.00
2007,09,19,11,39,15.00
2007,09,19,11,40,15.00
2007,09,19,11,41,15.10
2007,09,19,11,42,15.20
2007,09,19,11,43,15.20
2007,09,19,11,44,15.30
2007,09,19,11,45,15.30
2007,09,19,11,46,15.30
2007,09,19,11,47,15.30
2007,09,19,11,48,15.30
2007,09,19,11,49,15.30
2007,09,19,11,50,15.40
2007,09,19,11,51,15.40
2007,09,19,11,52,15.50
2007,09,19,11,53,15.60
2007,09,19,11,54,15.60
2007,09,19,11,55,15.60
2007,09,19,11,56,15.60
2007,09,19,11,57,15.70
2007,09,19,11,58,15.70
2007,09,19,11,59,15.80
2007,09,19,12,00,15.80
2007,09,19,12,01,15.80
2007,09,19,12,02,15.80
2007,09,19,12,03,15.90
2007,09,19,12,04,15.90
2007,09,19,12,05,15.90
2007,09,19,12,06,15.90
2007,09,19,12,07,15.80
2007,09,19,12,08,15.90
2007,09,19,12,09,15.90
2007,09,19,12,10,15.90
2007,09,19,12,11,16.00
2007,09,19,12,12,16.00
2007,09,19,12,13,16.00
2007,09,19,12,14,16.00
2007,09,19,12,15,16.10
2007,09,19,12,16,16.10
2007,09,19,12,17,16.20
2007,09,19,12,18,16.20
2007,09,19,12,19,16.30
2007,09,19,12,20,16.30
2007,09,19,12,21,16.30
2007,09,19,12,22,16.30
2007,09,19,12,23,16.30
2007,09,19,12,24,16.30
2007,09,19,12,25,16.30
2007,09,19,12,26,16.30
2007,09,19,12,27,16.30
2007,09,19,12,28,16.30
2007,09,19,12,29,16.30
2007,09,19,12,30,16.30
2007,09,19,12,31,16.30
2007,09,19,12,32,16.40
2007,09,19,12,33,16.40
2007,09,19,12,34,16.50
2007,09,19,12,35,16.50
2007,09,19,12,36,16.60
2007,09,19,12,37,16.60
2007,09,19,12,38,16.60
2007,09,19,12,39,16.70
2007,09,19,12,40,16.70
2007,09,19,12,41,16.60
2007,09,19,12,42,16.60
2007,09,19,12,43,16.60
2007,09,19,12,44,16.70
2007,09,19,12,45,16.70
2007,09,19,12,46,16.70
2007,09,19,12,47,16.80
2007,09,19,12,48,16.80
2007,09,19,12,49,16.80
2007,09,19,12,50,16.80
2007,09,19,12,51,16.70
2007,09,19,12,52,16.60
2007,09,19,12,53,16.60
2007,09,19,12,54,16.60
2007,09,19,12,55,16.60
2007,09,19,12,56,16.60
2007,09,19,12,57,16.70
2007,09,19,12,58,16.70
2007,09,19,12,59,16.70
2007,09,19,13,00,16.80
2007,09,19,13,01,16.80
2007,09,19,13,02,16.80
2007,09,19,13,03,16.80
2007,09,19,13,04,16.80
2007,09,19,13,05,16.90
2007,09,19,13,06,16.90
2007,09,19,13,07,17.00
2007,09,19,13,08,17.00
2007,09,19,13,09,17.00
2007,09,19,13,10,17.10
2007,09,19,13,11,17.10
2007,09,19,13,12,17.20
2007,09,19,13,13,17.20
2007,09,19,13,14,17.30
2007,09,19,13,15,17.20
2007,09,19,13,16,17.20
2007,09,19,13,17,17.20
2007,09,19,13,18,17.20
2007,09,19,13,19,17.20
2007,09,19,13,20,17.20
2007,09,19,13,21,17.20
2007,09,19,13,22,17.20
2007,09,19,13,23,17.20
2007,09,19,13,24,17.30
2007,09,19,13,25,17.30
2007,09,19,13,26,17.30
2007,09,19,13,27,17.30
2007,09,19,13,28,17.30
2007,09,19,13,29,17.20
2007,09,19,13,30,17.20
2007,09,19,13,31,17.20
2007,09,19,13,32,17.20
2007,09,19,13,33,17.20
2007,09,19,13,34,17.20
2007,09,19,13,35,17.20
2007,09,19,13,36,17.20
2007,09,19,13,37,17.30
2007,09,19,13,38,17.40
2007,09,19,13,39,17.40
2007,09,19,13,40,17.40
2007,09,19,13,41,17.30
2007,09,19,13,42,17.30
2007,09,19,13,43,17.30
2007,09,19,13,44,17.30
2007,09,19,13,45,17.30
2007,09,19,13,46,17.40
2007,09,19,13,47,17.40
2007,09,19,13,48,17.40
2007,09,19,13,49,17.40
2007,09,19,13,50,17.40
2007,09,19,13,51,17.30
2007,09,19,13,52,17.30
2007,09,19,13,53,17.30
2007,09,19,13,54,17.30
2007,09,19,13,55,17.40
2007,09,19,13,56,17.40
2007,09,19,13,57,17.50
2007,09,19,13,58,17.50
2007,09,19,13,59,17.40
2007,09,19,14,00,17.40
2007,09,19,14,01,17.40
2007,09,19,14,02,17.50
2007,09,19,14,03,17.50
2007,09,19,14,04,17.50
2007,09,19,14,05,17.50
2007,09,19,14,06,17.50
2007,09,19,14,07,17.60
2007,09,19,14,08,17.60
2007,09,19,14,09,17.60
2007,09,19,14,10,17.60
2007,09,19,14,11,17.60
2007,09,19,14,12,17.70
2007,09,19,14,13,17.70
2007,09,19,14,14,17.70
2007,09,19,14,15,17.80
2007,09,19,14,16,17.90
2007,09,19,14,17,17.90
2007,09,19,14,18,17.90
2007,09,19,14,19,17.80
2007,09,19,14,20,17.80
2007,09,19,14,21,17.80
2007,09,19,14,22,17.80
2007,09,19,14,23,17.80
2007,09,19,14,24,17.90
2007,09,19,14,25,17.90
2007,09,19,14,26,17.90
2007,09,19,14,27,17.90
2007,09,19,14,28,18.00
2007,09,19,14,29,18.00
2007,09,19,14,30,18.10
2007,09,19,14,31,18.10
2007,09,19,14,32,18.10
2007,09,19,14,33,18.10
2007,09,19,14,34,18.10
2007,09,19,14,35,18.10
2007,09,19,14,36,18.10
2007,09,19,14,37,18.10
2007,09,19,14,38,18.00
2007,09,19,14,39,18.00
2007,09,19,14,40,18.00
2007,09,19,14,41,18.10
2007,09,19,14,42,18.10
2007,09,19,14,43,18.10
2007,09,19,14,44,18.20
2007,09,19,14,45,18.20
2007,09,19,14,46,18.30
2007,09,19,14,47,18.30
2007,09,19,14,48,18.40
2007,09,19,14,49,18.40
2007,09,19,14,50,18.50
2007,09,19,14,51,18.40
2007,09,19,14,52,18.40
2007,09,19,14,53,18.40
2007,09,19,14,54,18.50
2007,09,19,14,55,18.50
2007,09,19,14,56,18.50
2007,09,19,14,57,18.60
2007,09,19,14,58,18.60
2007,09,19,14,59,18.60
2007,09,19,15,00,18.60
2007,09,19,15,01,18.50
2007,09,19,15,02,18.50
2007,09,19,15,03,18.60
2007,09,19,15,04,18.60
2007,09,19,15,05,18.60
2007,09,19,15,06,18.70
2007,09,19,15,07,18.70
2007,09,19,15,08,18.80
2007,09,19,15,09,18.80
2007,09,19,15,10,18.80
2007,09,19,15,11,18.80
2007,09,19,15,12,18.80
2007,09,19,15,13,18.70
2007,09,19,15,14,18.60
2007,09,19,15,15,18.60
2007,09,19,15,16,18.70
2007,09,19,15,17,18.70
2007,09,19,15,18,18.70
2007,09,19,15,19,18.70
2007,09,19,15,20,18.70
2007,09,19,15,21,18.80
2007,09,19,15,22,18.80
2007,09,19,15,23,18.80
2007,09,19,15,24,18.90
2007,09,19,15,25,19.00
2007,09,19,15,26,19.10
2007,09,19,15,27,19.20
2007,09,19,15,28,19.20
2007,09,19,15,29,19.20
2007,09,19,15,30,19.30
2007,09,19,15,31,19.30
2007,09,19,15,32,19.30
2007,09,19,15,33,19.30
2007,09,19,15,34,19.30
2007,09,19,15,35,19.20
2007,09,19,15,36,19.20
2007,09,19,15,37,19.10
2007,09,19,15,38,19.10
2007,09,19,15,39,19.00
2007,09,19,15,40,18.90
2007,09,19,15,41,18.80
2007,09,19,15,42,18.70
2007,09,19,15,43,18.70
2007,09,19,15,44,18.70
2007,09,19,15,45,18.60
2007,09,19,15,46,18.60
2007,09,19,15,47,18.60
2007,09,19,15,48,18.50
2007,09,19,15,49,18.50
2007,09,19,15,50,18.40
2007,09,19,15,51,18.40
2007,09,19,15,52,18.40
2007,09,19,15,53,18.40
2007,09,19,15,54,18.40
2007,09,19,15,55,18.40
2007,09,19,15,56,18.50
2007,09,19,15,57,18.50
2007,09,19,15,58,18.50
2007,09,19,15,59,18.50
2007,09,19,16,00,18.50
2007,09,19,16,01,18.50
2007,09,19,16,02,18.50
2007,09,19,16,03,18.50
2007,09,19,16,04,18.50
2007,09,19,16,05,18.40
2007,09,19,16,06,18.40
2007,09,19,16,07,18.40
2007,09,19,16,08,18.40
2007,09,19,16,09,18.40
2007,09,19,16,10,18.40
2007,09,19,16,11,18.40
2007,09,19,16,12,18.40
2007,09,19,16,13,18.40
2007,09,19,16,14,18.40
2007,09,19,16,15,18.40
2007,09,19,16,16,18.40
2007,09,19,16,17,18.40
2007,09,19,16,18,18.40
2007,09,19,16,19,18.40
2007,09,19,16,20,18.40
2007,09,19,16,21,18.40
2007,09,19,16,22,18.40
2007,09,19,16,23,18.40
2007,09,19,16,24,18.40
2007,09,19,16,25,18.40
2007,09,19,16,26,18.40
2007,09,19,16,27,18.40
2007,09,19,16,28,18.40
2007,09,19,16,29,18.30
2007,09,19,16,30,18.30
2007,09,19,16,31,18.20
2007,09,19,16,32,18.20
2007,09,19,16,33,18.10
2007,09,19,16,34,18.10
2007,09,19,16,35,18.00
2007,09,19,16,36,18.00
2007,09,19,16,37,17.90
2007,09,19,16,38,17.90
2007,09,19,16,39,17.90
2007,09,19,16,40,17.80
2007,09,19,16,41,17.80
2007,09,19,16,42,17.80
2007,09,19,16,43,17.80
2007,09,19,16,44,17.70
2007,09,19,16,45,17.70
2007,09,19,16,46,17.70
2007,09,19,16,47,17.70
2007,09,19,16,48,17.70
2007,09,19,16,49,17.70
2007,09,19,16,50,17.70
2007,09,19,16,51,17.70
2007,09,19,16,52,17.70
2007,09,19,16,53,17.70
2007,09,19,16,54,17.60
2007,09,19,16,55,17.60
2007,09,19,16,56,17.60
2007,09,19,16,57,17.60
2007,09,19,16,58,17.60
2007,09,19,16,59,17.60
2007,09,19,17,00,17.60
2007,09,19,17,01,17.70
2007,09,19,17,02,17.70
2007,09,19,17,03,17.70
2007,09,19,17,04,17.70
2007,09,19,17,05,17.70
2007,09,19,17,06,17.70
2007,09,19,17,07,17.60
2007,09,19,17,08,17.60
2007,09,19,17,09,17.60
2007,09,19,17,10,17.60
2007,09,19,17,11,17.60
2007,09,19,17,12,17.60
2007,09,19,17,13,17.60
2007,09,19,17,14,17.60
2007,09,19,17,15,17.60
2007,09,19,17,16,17.60
2007,09,19,17,17,17.60
2007,09,19,17,18,17.60
2007,09,19,17,19,17.60
2007,09,19,17,20,17.60
2007,09,19,17,21,17.60
2007,09,19,17,22,17.60
2007,09,19,17,23,17.60
2007,09,19,17,24,17.60
2007,09,19,17,25,17.50
2007,09,19,17,26,17.50
2007,09,19,17,27,17.50
2007,09,19,17,28,17.50
2007,09,19,17,29,17.50
2007,09,19,17,30,17.50
2007,09,19,17,31,17.50
2007,09,19,17,32,17.40
2007,09,19,17,33,17.40
2007,09,19,17,34,17.40
2007,09,19,17,35,17.40
2007,09,19,17,36,17.40
2007,09,19,17,37,17.40
2007,09,19,17,38,17.40
2007,09,19,17,39,17.40
2007,09,19,17,40,17.40
2007,09,19,17,41,17.40
2007,09,19,17,42,17.40
2007,09,19,17,43,17.40